Regional Weather Roundup
Issued by NWS

Home | Current Version | Previous Version | Graphics & Text | Print | Product List | Glossary On
Versions: 1 2 3 4 5 6 7 8 9 10 11 12 13 14 15 16 17 18 19 20 21 22 23 24 25 26 27 28 29 30 31 32 33 34 35 36 37 38 39 40 41 42 43 44 45 46 47 48 49 50
000
ASUS45 KTFX 051319
RWRMT
MONTANA HOURLY WEATHER ROUNDUP
NATIONAL WEATHER SERVICE GREAT FALLS MT
619 AM MST THU MAR 5 2015

NOTE: "FAIR" INDICATES FEW OR NO CLOUDS BELOW 12000 FEET WITH NO
SIGNIFICANT WEATHER AND/OR OBSTRUCTIONS TO VISIBILITY.

* THESE STATIONS ARE NOT UNDER NWS QUALITY CONTROL. THEY DO NOT
   REPORT WEATHER SUCH AS PRECIPITATION OR FOG.

MTZ001>007-043-051400-
WEST OF THE DIVIDE
CITY           SKY/WX    TMP DP  RH WIND       PRES   REMARKS
KALISPELL      MOCLDY    16  12  84 CALM      30.27R
MISSOULA       MOCLDY    19  12  74 CALM      30.32R
BUTTE          CLEAR     18   9  68 N5        30.20R WCI  11
MULLAN PASS    PTCLDY    23   1  38 SW7       30.17R WCI  15
* ANACONDA     CLEAR     21   9  60 N3         N/A
* ESSEX        N/A        9   6  87 NW2        N/A
* EUREKA APT   PTCLDY    12   9  88 CALM      30.31R
* HAMILTON APT PTCLDY    27  10  49 S14       30.28R WCI  16
* LIBBY APT    PTCLDY    16  12  84 CALM      30.30R
* LINCOLN      N/A       22   4  46 S4         N/A
* LOOKOUT PASS N/A       22   6  50 S3         N/A
* POLSON       N/A       24   9  53 S1         N/A
* RONAN APT    MOCLDY    21  16  81 N/A        N/A
* SEELEY LAKE  N/A        3  -2  79 NE1        N/A
* THOMP F APT  PTCLDY    14   6  70 N1         N/A
$$

MTZ008-052>055-051400-
SOUTHWEST MONTANA
CITY           SKY/WX    TMP DP  RH WIND       PRES   REMARKS
BOZEMAN        CLEAR     14   7  73 S3        30.20R
DILLON         PTCLDY    25   9  50 W5        30.21R WCI  19
* W YELLOWSTON CLEAR     -4  -9  79 S2         N/A
* THREE FORKS  CLEAR     10   5  80 N/A        N/A
* BOULDER HILL N/A       25   3  38 S2         N/A
* MONIDA PASS  N/A       12   5  73 SE14       N/A   WCI  -4
* RAYNOLDS PAS N/A        8  -8  47 SE18       N/A   WCI -11
* WHITEHALL    N/A       31   8  38 W10G15     N/A   WCI  22
* WISE RIVER   N/A       21   2  43 SW4        N/A
$$

MTZ009>010-012-014-046-048-049-054-051400-
EAST SLOPES AND CENTRAL MONTANA
CITY           SKY/WX    TMP DP  RH WIND       PRES   REMARKS
CUT BANK       CLEAR     28  12  51 W21       30.03S WCI  14
GREAT FALLS    PTCLDY    27  12  53 SW16      30.08R WCI  15
HELENA         PTCLDY    32   7  35 W9        30.18R WCI  24
MALMSTROM AFB  PTCLDY    27  14  58 SW16      30.10R WCI  15
* CONRAD       PTCLDY    32  16  52 S13        N/A   WCI  22
* DEARBORN     N/A       20  13  74 SE4        N/A
* EAST GLACIER N/A       28   9  45 W30G37     N/A   WCI  12
* MONARCH      N/A       23   3  42 S6G11      N/A   WCI  16
* PENDROY      N/A       29  11  47 NW16       N/A   WCI  17
* ROGERS PASS  N/A       22   4  46 SE8G21     N/A   WCI  13
* SWEET GRASS  N/A       26  11  53 W15G22     N/A   WCI  14
* WHITE SULPH  N/A       20   4  50 NE2        N/A
$$

MTZ011-013-016-021-035-040-045-047-050-051-051400-
NORTH CENTRAL MONTANA
CITY           SKY/WX    TMP DP  RH WIND       PRES   REMARKS
HAVRE          PTCLDY    21  12  68 SW13      30.07R WCI   8
LEWISTOWN      PTCLDY    28  12  51 W3        30.07R
* N BAR RANCH  MOCLDY    30  10  43 NW16      30.02R WCI  19
* CHINOOK      CLEAR     21  12  68 W3        30.07R
* FORT BENTON  PTCLDY    28  14  56 SW8       30.10S WCI  20
* CHESTER      N/A       26  10  51 W9G14      N/A   WCI  17
* DENTON       N/A       28  13  53 W15G20     N/A   WCI  16
* GEYSER       N/A       28  10  47 NW7G13     N/A   WCI  21
* JUDITH GAP   N/A       28  10  47 W17G23     N/A   WCI  16
* LOMA         N/A       27  15  61 W7         N/A   WCI  19
$$

MTZ017>020-022>027-061-062-051400-
NORTHEAST MONTANA
CITY           SKY/WX    TMP DP  RH WIND       PRES   REMARKS
GLASGOW        CLEAR      9   0  66 W5        30.02R
GLENDIVE       PTCLDY    10   1  67 S12       30.04S WCI  -5
JORDAN         PTCLDY    21  12  68 W13       30.03R WCI   8
SIDNEY         CLEAR      5  -8  54 SE6       30.08S WCI  -6
WOLF POINT     CLEAR      5   0  80 CALM      30.04S
* BEAVER HILL  N/A       16   4  59 S16G24     N/A   WCI   1
* CIRCLE       N/A       17   9  71 W5         N/A   WCI   9
* LINDSAY DVD  N/A       23   8  52 SW17G24    N/A   WCI   9
* NAVAJO       N/A        8  -3  60 SW6        N/A   WCI  -2
* PLENTYWOOD A CLEAR      1  -8  65 E5        30.00F WCI  -9
* POPLAR APT   CLEAR      5   0  80 N6        30.04S WCI  -6
* SACO         N/A        4  -1  79 W6         N/A   WCI  -7
* SCOBEY APT   CLEAR      3  -9  57 N/A        N/A
$$

MTZ028>042-056>058-051400-
SOUTHCENTRAL AND SOUTHEAST MONTANA
CITY           SKY/WX    TMP DP  RH WIND       PRES   REMARKS
BAKER          CLOUDY     9   3  76 CALM      30.06S
BILLINGS       CLOUDY    25   5  42 SW20      30.10R WCI  11
LIVINGSTON     PTCLDY    30   9  41 W23G33    30.13R WCI  17
MILES CITY     CLOUDY    14   7  73 N/A       30.07S
* BIG TIMBER A MOCLDY    34   7  32 SW30G39   30.09R WCI  20
* FORSYTH APT  MOCLDY    21   9  60 SW5       30.08R WCI  14
* LAUREL APT   CLOUDY    25   3  38 N/A        N/A
* ROUNDUP APT  CLOUDY    28   7  41 N/A        N/A
* ALZADA       N/A        6  -1  73 E4         N/A
* HYSHAM       N/A       22   5  48 W8G13      N/A   WCI  13
* REED POINT   N/A       34  14  44 SW3G11     N/A
* ROSCOE HILL  N/A       20   2  45 SE8        N/A   WCI  10
$$

REGIONAL REPORTS...DAKOTAS
CITY           SKY/WX    TMP DP  RH WIND       PRES   REMARKS
WILLISTON      PTCLDY   N/A N/A N/A N/A       30.07F
DICKINSON      CLOUDY     9   0  66 S14       30.04F WCI  -7
BEACH          CLOUDY     9   5  84 S10       30.03F WCI  -5
CROSBY         CLEAR      0  -9  65 S15       30.04F WCI -19
TIOGA          CLEAR     -9 -13  82 E5        30.07F WCI -21
WATFORD CITY   CLEAR     -2  -9  72 SW3       30.05F
BISMARCK       MOCLDY    -6 -11  78 E6        30.22F WCI -19
GRAND FORKS    PTCLDY   -11 -18  70 S8        30.34F WCI -28
FARGO          MOCLDY    -8 -15  71 S10       30.40S WCI -26
BUFFALO SD     PTCLDY     7  -2  66 S6        30.00F WCI  -4
RAPID CITY     PTCLDY     1  -4  79 CALM      30.13F
$$

REGIONAL REPORTS...WYOMING/IDAHO/WASHINGTON
CITY           SKY/WX    TMP DP  RH WIND       PRES   REMARKS
GILLETTE       PTCLDY    19   3  49 SW16      30.08R WCI   4
SHERIDAN       MOCLDY    10   1  67 S3        30.10R
CODY           MOCLDY    12   7  80 NE7       30.11R WCI   1
YELLOWSTONE LA PTCLDY    -9 -15  74 W3        30.25R
SALMON         MOCLDY    16  10  77 CALM      30.35R
MULLAN PASS    PTCLDY    23   1  38 SW7       30.17S WCI  15
SAND POINT     CLEAR     21  19  92 CALM      30.30S
SPOKANE        MOCLDY    27  18  69 CALM      30.26R
$$

REGIONAL REPORTS...ALBERTA
CITY           SKY/WX    TMP DP  RH WIND       PRES   REMARKS
CALGARY        FAIR      32   9  38 VRB2      29.97R
LETHBRIDGE     FAIR      32  12  43 W21       30.02R WCI  20
MEDICINE HAT   PTCLDY    12  10  92 SW6       30.03R WCI   2
EDMONTON       MOCLDY    23  10  57 W14       29.93R WCI  10
WATERTON GATE  N/A       30  10  43 SW29G43    N/A   WCI  15
CARDSTON       N/A       32  14  47 W10G17     N/A   WCI  24
MILK RIVER     N/A       19  12  74 NW9        N/A   WCI   8
$$

REGIONAL REPORTS...SASKATCHEWAN
CITY           SKY/WX    TMP DP  RH WIND       PRES   REMARKS
SWIFT CURRENT  CLEAR     10   5  80 SW12      29.95R WCI  -5
MOOSE JAW      FAIR      -8 -15  71 W2        29.99S
REGINA         FAIR     -13 -18  78 SE9       30.01S WCI -31
ASSINIBOIA     N/A        1  -4  79 W7         N/A   WCI -12
CORONACH       N/A        0  -6  75 S6         N/A   WCI -12

$$



USA.gov is the U.S. government's official web portal to all federal, state and local government web resources and services.